Tracking 27380 objects as of 6-Jun-2023
HD Live streaming from Space Station
objects crossing your sky now

ONEWEB-0223

Track ONEWEB-0223 now!
10-day predictions
ONEWEB-0223 is classified as:


NORAD ID: 48768
Int'l Code: 2021-045B
Perigee: 1,207.3 km
Apogee: 1,210.5 km
Inclination: 87.9 °
Period: 109.5 minutes
Semi major axis: 7579 km
RCS: Unknown
Launch date: May 28, 2021
Source: United Kingdom (UK)
Launch site: VOSTOCHNY COSMODROME (VOSTO)
Your satellite tracking list
Your tracking list is empty




NASA's NSSDC Master Catalog

Two Line Element Set (TLE):
1 48768U 21045B   23156.79831318  .00000072  00000-0  15685-3 0  9999
2 48768  87.9004 119.7018 0002078  69.8382 290.2971 13.15548461 98806
Source of the keplerian elements: AFSPC